Zagreb, Croatia

5:13 AM CET on February 20, 2017 (GMT +0100)
Zagreb Pleso

Weather History for LDZA - November, 2012

Change the Weather History Date:

Saturday, November 10, 2012

  Actual Average Record
Temperature  
Mean Temperature 42 °F -  
Max Temperature 52 °F - - ()
Min Temperature 32 °F - - ()
Degree Days  
Heating Degree Days 23    
Moisture  
Dew Point 38 °F    
Average Humidity 88    
Maximum Humidity 100    
Minimum Humidity 63    
Precipitation  
Precipitation 0.00 in - - ()
Sea Level Pressure  
Sea Level Pressure 30.07 in    
Wind  
Wind Speed 1 mph ()    
Max Wind Speed 4 mph    
Max Gust Speed -    
Visibility 3.1 miles    
Events Fog    
T = Trace of Precipitation, MM = Missing Value Source: Averaged Metar Reports

Daily Weather History Graph

Daily Weather History Graph

Search for Another Location

Airport or City:

Trip Planner

Search our weather history database for the weather conditions in past years. The results will help you decide how hot, cold, wet, or windy it might be!

Date:

Astronomy

Nov. 10, 2012 Rise Set
Actual Time 6:48 AM CET 4:30 PM CET
Civil Twilight 6:16 AM CET 5:01 PM CET
Nautical Twilight 5:41 AM CET 5:37 PM CET
Astronomical Twilight 5:06 AM CET 6:12 PM CET
Moon 2:22 AM CET (11/10) 2:16 PM CET (11/10)
Length of Visible Light 10h 45m
Length of Day
9h 41m
Waning Crescent, 16% of the Moon is Illuminated
Nov 10
Waning Crescent
Nov 13
New
Nov 20
First Quarter
Nov 28
Full
Dec 6
Last Quarter

Hourly Weather History & Observations

Time (CET) Temp. Windchill Dew Point Humidity Pressure Visibility Wind Dir Wind Speed Gust Speed Precip Events Conditions
12:00 AM 35.6 °F - 33.8 °F 93% 30.15 in 6.2 mi Variable 1.2 mph - N/A Fog Shallow Fog
12:30 AM 35.6 °F - 33.8 °F 93% 30.15 in 6.2 mi SW 2.3 mph - N/A Fog Shallow Fog
1:00 AM 35 °F - 33 °F 89% 30.16 in 12 mi SSW 2.2 mph - - Fog Patches of Fog
1:00 AM 33.8 °F - 33.8 °F 100% 30.12 in 6.2 mi SSW 2.3 mph - N/A Fog Shallow Fog
1:30 AM 33.8 °F - 33.8 °F 100% 30.12 in 6.2 mi Variable 1.2 mph - N/A Fog Shallow Fog
2:00 AM 33.8 °F - 32.0 °F 93% 30.12 in 6.2 mi Calm Calm - N/A Fog Shallow Fog
2:30 AM 33.8 °F - 32.0 °F 93% 30.12 in 6.2 mi Calm Calm - N/A Fog Shallow Fog
3:00 AM 33.8 °F - 32.0 °F 93% 30.12 in 6.2 mi SW 2.3 mph - N/A Fog Shallow Fog
3:30 AM 32.0 °F - 32.0 °F 100% 30.09 in 2.5 mi Variable 1.2 mph - N/A   Partly Cloudy
4:00 AM 33 °F - 31 °F 90% 30.14 in 2 mi Calm Calm - -   Mist
4:00 AM 32.0 °F - 32.0 °F 100% 30.12 in 1.9 mi Calm Calm - N/A   Partly Cloudy
4:30 AM 33.8 °F - 32.0 °F 93% 30.09 in 0.6 mi ENE 2.3 mph - N/A Fog Patches of Fog
5:00 AM 32.0 °F - 30.2 °F 93% 30.09 in 0.2 mi Variable 1.2 mph - N/A Fog Fog
5:30 AM 32.0 °F - 32.0 °F 100% 30.09 in 0.4 mi Calm Calm - N/A Fog Fog
6:00 AM 33.8 °F - 32.0 °F 93% 30.09 in 0.2 mi SSW 1.2 mph - N/A Fog Fog
6:30 AM 33.8 °F - 32.0 °F 93% 30.09 in 0.1 mi ESE 1.2 mph - N/A Fog Fog
7:00 AM 34 °F - 33 °F 94% 30.13 in 0 mi Calm Calm - - Fog Heavy Fog
7:00 AM 33.8 °F - 33.8 °F 100% 30.09 in 0.1 mi Calm Calm - N/A Fog Fog
7:30 AM 33.8 °F - 33.8 °F 100% 30.12 in 0.1 mi Variable 2.3 mph - N/A Fog Fog
8:00 AM 35.6 °F - 33.8 °F 93% 30.09 in 0.1 mi Variable 1.2 mph - N/A Fog Fog
8:30 AM 37.4 °F 34.9 °F 35.6 °F 93% 30.12 in 0.2 mi SW 3.5 mph - N/A Fog Patches of Fog
9:00 AM 37.4 °F - 37.4 °F 100% 30.12 in 0.9 mi Calm Calm - N/A Fog Patches of Fog
9:30 AM 39.2 °F - 39.2 °F 100% 30.12 in 1.6 mi Calm Calm - N/A   Partly Cloudy
10:00 AM 41 °F - 40 °F 94% 30.14 in 2 mi Calm Calm - -   Mist
10:00 AM 41.0 °F - 39.2 °F 93% 30.12 in 2.5 mi Calm Calm - N/A   Mist
10:30 AM 42.8 °F - 41.0 °F 93% 30.12 in 2.5 mi Variable 1.2 mph - N/A   Partly Cloudy
11:00 AM 42.8 °F - 41.0 °F 93% 30.12 in 3.1 mi Variable 1.2 mph - N/A   Partly Cloudy
11:30 AM 46.4 °F - 42.8 °F 87% 30.09 in 3.7 mi Calm Calm - N/A   Unknown
12:00 PM 48.2 °F - 42.8 °F 82% 30.09 in 5.0 mi Variable 1.2 mph - N/A   Unknown
12:30 PM 48.2 °F - 42.8 °F 82% 30.06 in 5.0 mi Variable 1.2 mph - N/A   Unknown
1:00 PM 50 °F - 43 °F 68% 30.08 in 6 mi Calm Calm - -   Partly Cloudy
1:00 PM 50.0 °F - 42.8 °F 76% 30.06 in - Variable 1.2 mph - N/A   Clear
1:30 PM 51.8 °F - 42.8 °F 71% 30.06 in - Variable 2.3 mph - N/A   Clear
2:00 PM 50.0 °F - 42.8 °F 76% 30.04 in - Variable 2.3 mph - N/A   Clear
2:30 PM 51.8 °F - 41.0 °F 67% 30.04 in - East 3.5 mph - N/A   Clear
3:00 PM 53.6 °F - 42.8 °F 67% 30.04 in - ESE 3.5 mph - N/A   Clear
3:30 PM 51.8 °F - 42.8 °F 71% 30.01 in - ESE 2.3 mph - N/A   Clear
4:00 PM 52 °F - 43 °F 63% 30.04 in 6 mi Calm Calm - -   Mostly Cloudy
4:00 PM 51.8 °F - 42.8 °F 71% 30.04 in - Calm Calm - N/A   Clear
4:30 PM 50.0 °F - 42.8 °F 76% 30.04 in - North 2.3 mph - N/A   Clear
5:00 PM 48.2 °F - 42.8 °F 82% 30.01 in 5.0 mi NNE 2.3 mph - N/A   Unknown
5:30 PM 48.2 °F - 41.0 °F 76% 30.01 in 5.0 mi NNW 2.3 mph - N/A   Unknown
6:00 PM 46.4 °F - 41.0 °F 81% 30.04 in - Variable 1.2 mph - N/A   Clear
6:30 PM 44.6 °F - 41.0 °F 87% 30.04 in - Variable 1.2 mph - N/A   Clear
7:00 PM 45 °F - 41 °F 82% 30.04 in 6 mi Calm Calm - -   Mostly Cloudy
7:00 PM 44.6 °F - 41.0 °F 87% 30.01 in - SSE 1.2 mph - N/A   Clear
7:30 PM 44.6 °F - 41.0 °F 87% 30.01 in - SSW 2.3 mph - N/A   Clear
8:00 PM 42.8 °F - 41.0 °F 93% 30.01 in 5.0 mi Variable 1.2 mph - N/A   Unknown
8:30 PM 42.8 °F - 39.2 °F 87% 30.01 in 3.1 mi Calm Calm - N/A   Mist
9:00 PM 41.0 °F - 39.2 °F 93% 30.01 in 2.5 mi Calm Calm - N/A   Mist
9:30 PM 41.0 °F 39.0 °F 39.2 °F 93% 30.01 in 2.5 mi ESE 3.5 mph - N/A   Mist
10:00 PM 40 °F - 37 °F 87% 30.03 in 2 mi NW 2.2 mph - -   Mist
10:00 PM 39.2 °F - 37.4 °F 93% 30.01 in 1.9 mi NW 1.2 mph - N/A   Mist
10:30 PM 39.2 °F - 37.4 °F 93% 30.01 in 1.2 mi Variable 2.3 mph - N/A   Mist
11:00 PM 39.2 °F - 37.4 °F 93% 30.01 in 1.2 mi Calm Calm - N/A   Mist
11:30 PM 37.4 °F - 35.6 °F 93% 30.01 in 0.4 mi Calm Calm - N/A   Unknown